Location: Fort Worth, Tx
(32.7431°N, 97.3695°W)
Time: 14:48:11
(UTC-04:00)

Transit 2A - Pass Details

Date: 23 February 2024
Orbit: 596 x 956 km, 66.7° (Epoch: 20 April)

Event Time Altitude Azimuth Distance (km) Brightness Sun altitude
Rises 20:50:36 0° 202° (SSW) 2,932 9.3 -19.4°
Reaches altitude 10° 20:52:56 10° 201° (SSW) 1,990 8.4 -19.9°
Maximum altitude 20:57:21 79° 114° (ESE) 618 5.3 -20.9°
Enters shadow 20:58:43 43° 35° (NE) 846 6.0 -21.1°
